Regional Weather Roundup
Issued by NWS

Home | Current Version | Previous Version | Text Only | Print | Product List | Glossary On
Versions: 1 2 3 4 5 6 7 8 9 10 11 12 13 14 15 16 17 18 19 20 21 22 23 24 25 26 27 28 29 30 31 32 33 34 35 36 37 38 39 40 41 42 43 44 45 46 47 48 49 50
000
ASUS44 KLUB 242210
RWRTX
WEST TEXAS WEATHER ROUNDUP
NATIONAL WEATHER SERVICE LUBBOCK TX
500 PM CDT WED AUG 24 2016

NOTE: "FAIR" INDICATES FEW OR NO CLOUDS BELOW 12,000 FEET WITH NO
SIGNIFICANT WEATHER AND/OR OBSTRUCTIONS TO VISIBILITY.

TXZ004-006>008-010-012-014-016-OKZ002-242300-
TEXAS PANHANDLE/OKLAHOMA PANHANDLE

CITY           SKY/WX    TMP DP  RH WIND       PRES   REMARKS
AMARILLO       MOSUNNY   87  56  34 S17G25    30.06F
BORGER         MOSUNNY   88  61  40 SE17G23   30.01F
CANADIAN       CLOUDY    86  64  47 S8        30.01S
DALHART        CLOUDY    85  56  37 S13       30.05F
DUMAS          LGT RAIN  67  61  79 CALM      30.06F
GUYMON         CLOUDY    87  52  29 SE5       30.02F
HEREFORD       CLOUDY    88  55  32 SW18G28   30.08F
PAMPA          PTSUNNY   87  60  39 S18       30.06S
PERRYTON       MOSUNNY   82  60  46 SE6       30.05R
$$

TXZ026-029-035-045-048-242300-
SOUTHERN PANHANDLE/SOUTH PLAINS/ROLLING PLAINS

CITY           SKY/WX    TMP DP  RH WIND       PRES   REMARKS
CHILDRESS      SUNNY     89  64  43 W10       30.01F
SEMINOLE       DRIZZLE   70  62  74 S9        30.11F
LUBBOCK        PTSUNNY   81  59  47 SW17      30.10F
PLAINVIEW      MOSUNNY   76  60  57 SW16      30.10S
SNYDER           N/A     91  62  37 S7        30.02F
$$

TXZ052-054-060>062-072-078-127-140-154-169-242300-
PERMIAN BASIN/CONCHO VALLEY/BIG COUNTRY/EDWARDS PLATEAU

CITY           SKY/WX    TMP DP  RH WIND       PRES   REMARKS
ABILENE        SUNNY     92  63  38 SW14G23   30.03F
BIG SPRING     PTSUNNY   85  62  44 W10       30.05F
BROWNWOOD      MOSUNNY   91  66  43 S9        30.04F
JUNCTION       MOSUNNY   90  64  42 S13       30.05F
MIDLAND        CLOUDY    83  60  45 W20G29    30.09S
ODESSA         CLOUDY    78  59  51 NW12      30.11F
SAN ANGELO     SUNNY     94  61  33 S15       30.03F
SONORA         SUNNY     90  63  40 SE9G18    30.10F
SWEETWATER     SUNNY     94  58  30 S16       30.06F
WINK           LGT RAIN  69  65  86 S3        30.08F
$$

TXZ055-058-074-075-080-082-242300-
FAR WEST/SOUTHWEST MOUNTAINS/TRANS PECOS

CITY           SKY/WX    TMP DP  RH WIND       PRES   REMARKS
ALPINE         CLOUDY    72  62  70 CALM      30.24F
DRYDEN           N/A     91  67  44 E13       30.01F
EL PASO        MOSUNNY   86  46  24 SW12G22   30.06F
FORT STOCKTON  MOSUNNY   75  64  68 W7        30.11S
GUADALUPE PASS SUNNY     78  57  48 S8G17     30.22F
MARFA          MOSUNNY  N/A N/A N/A VRB5      30.20F
PECOS          CLOUDY    69  66  90 CALM      30.09F
PRESIDIO       FAIR      89  61  39 NE3       30.04F
$$

TXZ014-016-019-021>030-083-242300
TEXAS TECH WEST TEXAS MESONET/TEXAS PANHANDLE/NORTHERN SOUTH PLAINS

CITY           SKY/WX    TMP DP  RH WIND       PRES   REMARKS
ABERNATHY 5ENE   N/A     76  62  60 SW13      30.13F
AMARILLO 9NNE    N/A     89  57  33 S14       30.04F
AMARILLO 7SSE    N/A     86  57  36 S16       30.08F
AMHERST 1NE      N/A     79  60  51 S18G25    30.10F
BOOTLEG 11WNW    N/A     84  54  36 S16G23    30.12F
CANADIAN 6E      N/A     87  63  44 S10       30.01S
CAPROCK CYN SP   N/A     86  58  39 S15       30.07F
CHILDRESS 2NNE   N/A     90  62  38 W10       30.03S
CLARENDON 2WSW   N/A     81  65  58 S15       30.07S
CLAUDE 12SW      N/A     85  56  36 S14       30.08S
DIMMITT 2NE      N/A     77  62  59 SE21G26   30.11S
FLOYDADA 2NNE    N/A     85  58  39 S12       30.10F
FRIONA 2NE       N/A     85  52  32 S21       30.09F
GOODLETT 3W      N/A     92  63  37 SW13      29.99F
HART 3N          N/A     78  62  57 S12G20    30.11F
HEREFORD 2NW     N/A     86  50  28 S15G24    30.09F
MCLEAN 1E        N/A     84  59  43 S16       30.06S
MEMPHIS 1NE      N/A     89  63  41 S9        30.03F
MULESHOE 2SSW    N/A     82  59  45 S21G28    30.11S
OLTON 6S         N/A     74  62  66 S15       30.11F
PALO DURO SP     N/A     87  56  35 SW16      30.08F
PAMPA 2E         N/A     84  61  45 S14       30.07S
PLAINVIEW 1S     N/A     77  62  61 S17G24    30.11F
SILVERTON 7ESE   N/A     84  60  43 S12       30.08F
TULIA 2ENE       N/A     78  61  54 S16       30.10F
TURKEY 2WSW      N/A     87  61  42 SW8       30.06F
UMBARGER 3NNE    N/A     87  54  32 S25       30.08F
$$

TXZ033>036-039>041-045>048-242300
TEXAS TECH WEST TEXAS MESONET/SOUTH PLAINS

CITY           SKY/WX    TMP DP  RH WIND       PRES   REMARKS
AIKEN 3WSW       N/A     78  63  58 SW21      30.12F
ANDREWS 2NE      N/A     73  60  64 W8        30.13F
ANTON 6SSW       N/A     73  63  70 S13       30.12F
BROWNFIELD 2S    N/A     74  62  65 SW10      30.14S
DENVR CTY 7WNW   N/A     69  60  70 S18       30.14F
GAIL 2ESE        N/A     89  62  39 W10G16    30.04F
LAMESA 2SE       N/A     83  64  53 W15G21    30.10F
LEVELLAND 4S     N/A     73  62  66 S12       30.14F
LUBBOCK 3WNW     N/A     79  58  48 SW13      30.12F
MORTON 1ENE      N/A     78  58  50 S15G22    30.11F
ODONNELL 1N      N/A     85  58  40 W18       30.11S
PLAINS 3N        N/A     73  58  59 S15G21    30.13F
RALLS 1SE        N/A     86  59  39 W10       30.10F
REESE CENTER     N/A     75  60  58 SW13      30.13F
SEAGRAVES 1SW    N/A     71  64  78 S16G22    30.15
SEMINOLE 2NNE    N/A     71  60  67 S8        30.11F
SLATON 2NE       N/A     85  60  43 W15       30.10F
SNYDER 3E        N/A     90  62  38 S10       30.03F
SUNDOWN 8SW      N/A     74  61  65 S13G18    30.14S
TAHOKA 3NNE      N/A     82  62  51 W15       30.11S
WOLFFORTH 6SSW   N/A     78  62  58 S12       30.12F
$$

TXZ031-032-036>038-042>044-242300-
TEXAS TECH WEST TEXAS MESONET/ROLLING PLAINS

CITY           SKY/WX    TMP DP  RH WIND       PRES   REMARKS
ASPERMONT 3NE    N/A     97  62  30 SW12G17   29.99F HX  98
FLUVANNA 3WNW    N/A     90  56  32 SW12G17   30.05F
GRAHAM 5SSW      N/A     88  60  38 SW13      30.08F
GUTHRIE 10WSW    N/A     91  63  40 SW6       30.01S
HASKELL 1NW      N/A     92  61  35 S15G22    30.00F
JAYTON 1SSE      N/A     97  57  26 SW13G21   30.00F HX  95
KNOX CITY 3NW    N/A     96  62  32 S20       29.98F HX  97
LK A HENRY 1NW   N/A     95  59  29 W9        30.03F
NORTHFIELD 1S    N/A     90  63  40 SW12      30.03F
ODELL 4ENE       N/A     93  69  45 SW13      29.99S HX  98
PADUCAH 10SW     N/A     91  65  42 SW9       30.02F
POST 1NE         N/A     89  60  37 SW12      30.06F
RRING SPRGS 3N   N/A     88  62  42 SW7       30.07F
SEYMOUR 3NW      N/A     96  61  31 S15       29.98F HX  97
SPUR 1W          N/A     91  56  30 W13       30.04F
WEINERT 2NNE     N/A     93  68  43 S17       29.99F HX  97
$$

TXZ052-054-060>062-072-078-127-140-154-169-242300-
TEXAS TECH WEST TEXAS MESONET/PERMIAN BASIN/
CONCHO VALLEY/BIG COUNTRY/EDWARDS PLATEAU

CITY           SKY/WX    TMP DP  RH WIND       PRES   REMARKS
COYANOSA 2N      N/A     71  66  86 W6        30.10F
JUNCTION 1SSW    N/A     92  67  43 SE14      30.07F HX  95
MERTZON 3NNE     N/A     94  63  36 S10       30.06F HX  95
SAN ANGELO 7NW   N/A     95  57  27 S13       30.04F
STRLNG CT 4WSW   N/A     94  59  30 S15       30.05F
ST LAWRNCE 5SW   N/A     91  60  34 NW14      30.05F
WALL 1E          N/A     93  59  31 SE14      30.06F
$$

TXZ055-058-074-075-080-082-242300-
TEXAS TECH WEST TEXAS MESONET/FAR WEST/SOUTHWEST MOUNTAINS/TRANS PECOS

CITY           SKY/WX    TMP DP  RH WIND       PRES   REMARKS
GUADLPE MTN NP   N/A     76  52  42 SW3       30.24S
$$



USA.gov is the U.S. government's official web portal to all federal, state and local government web resources and services.